Weather History for KSAF - November, 2013

Change the Weather History Date:

Thursday, November 28, 2013

  Actual Average Record
Temperature  
Mean Temperature 30 °F -  
Max Temperature 43 °F 46 °F 62 °F (1999)
Min Temperature 18 °F 21 °F 10 °F (2001)
Degree Days  
Heating Degree Days 34    
Moisture  
Dew Point 19 °F    
Average Humidity 70    
Maximum Humidity 88    
Minimum Humidity 45    
Precipitation  
Precipitation 0.00 in - - ()
Sea Level Pressure  
Sea Level Pressure 30.27 in    
Wind  
Wind Speed 10 mph (North)    
Max Wind Speed 18 mph    
Max Gust Speed -    
Visibility 10 miles    
Events      
Averages and records for this station are not official NWS values.
T = Trace of Precipitation, MM = Missing Value Source: NWS Daily Summary

Daily Weather History Graph

Daily Weather History Graph

Search for Another Location

Airport or City:

Trip Planner

Search our weather history database for the weather conditions in past years. The results will help you decide how hot, cold, wet, or windy it might be!

Date:

Astronomy

Nov. 28, 2013 Rise Set
Actual Time 6:53 AM MST 4:51 PM MST
Civil Twilight 6:25 AM MST 5:19 PM MST
Nautical Twilight 5:53 AM MST 5:50 PM MST
Astronomical Twilight 5:23 AM MST 6:21 PM MST
Moon 2:07 AM MST (11/28) 1:54 PM MST (11/28)
Length of Visible Light 10h 54m
Length of Day
9h 58m
Waning Crescent, 22% of the Moon is Illuminated
Nov 28
Waning Crescent
Dec 2
New
Dec 9
First Quarter
Dec 17
Full
Dec 25
Last Quarter

Hourly Weather History & Observations

Time (MST) Temp. Windchill Dew Point Humidity Pressure Visibility Wind Dir Wind Speed Gust Speed Precip Events Conditions
12:53 AM 21.9 °F 10.4 °F 18.0 °F 85% 30.22 in 10.0 mi North 11.5 mph - N/A   Clear
1:53 AM 21.9 °F 10.4 °F 17.1 °F 82% 30.23 in 10.0 mi NNE 11.5 mph - N/A   Clear
2:53 AM 21.0 °F 8.6 °F 16.0 °F 81% 30.23 in 10.0 mi North 12.7 mph - N/A   Clear
3:53 AM 19.9 °F 6.7 °F 15.1 °F 81% 30.21 in 10.0 mi North 13.8 mph - N/A   Clear
4:53 AM 19.0 °F 4.5 °F 14.0 °F 81% 30.25 in 10.0 mi North 16.1 mph - N/A   Clear
5:53 AM 19.0 °F 6.1 °F 14.0 °F 81% 30.30 in 10.0 mi North 12.7 mph - N/A   Clear
6:53 AM 18.0 °F 4.2 °F 12.9 °F 81% 30.29 in 10.0 mi North 13.8 mph - N/A   Clear
7:53 AM 21.0 °F 6.2 °F 14.0 °F 74% 30.29 in 10.0 mi North 18.4 mph - N/A   Clear
8:53 AM 24.1 °F 13.1 °F 15.1 °F 69% 30.30 in 10.0 mi North 11.5 mph - N/A   Clear
9:53 AM 28.9 °F 17.7 °F 18.0 °F 64% 30.30 in 10.0 mi North 15.0 mph - N/A   Clear
10:53 AM 32.0 °F 23.0 °F 19.0 °F 59% 30.28 in 10.0 mi North 11.5 mph - N/A   Clear
11:53 AM 36.0 °F 28.5 °F 19.9 °F 52% 30.25 in 10.0 mi North 10.4 mph - N/A   Clear
12:53 PM 39.0 °F 34.8 °F 21.9 °F 50% 30.23 in 10.0 mi NNE 5.8 mph - N/A   Clear
1:53 PM 42.1 °F - 21.9 °F 45% 30.22 in 10.0 mi Calm Calm - N/A   Clear
2:53 PM 43.0 °F - 23.0 °F 45% 30.21 in 10.0 mi Calm Calm - N/A   Clear
3:53 PM 41.0 °F 37.1 °F 25.0 °F 53% 30.23 in 10.0 mi SW 5.8 mph - N/A   Clear
4:53 PM 37.9 °F 34.4 °F 25.0 °F 60% 30.24 in 10.0 mi East 4.6 mph - N/A   Clear
5:53 PM 35.1 °F - 26.1 °F 70% 30.27 in 10.0 mi Calm Calm - N/A   Clear
6:53 PM 30.9 °F 26.2 °F 24.1 °F 76% 30.32 in 10.0 mi East 4.6 mph - N/A   Clear
7:53 PM 24.1 °F 16.0 °F 21.0 °F 88% 30.35 in 10.0 mi NNW 6.9 mph - N/A   Clear
8:53 PM 28.0 °F 24.2 °F 21.0 °F 75% 30.33 in 10.0 mi North 3.5 mph - N/A   Clear
9:53 PM 27.0 °F 23.0 °F 21.0 °F 78% 30.33 in 10.0 mi NW 3.5 mph - N/A   Clear
10:53 PM 28.9 °F - 21.0 °F 72% 30.30 in 10.0 mi Calm Calm - N/A   Clear
11:53 PM 24.1 °F 18.2 °F 19.9 °F 84% 30.32 in 10.0 mi NNW 4.6 mph - N/A   Clear